EW7074 Weather Reports


Display with metric or nautical units.
time (UTC)temp
F
wind
direction
speed
MPH
gust
MPH
rain 1hr
in
rain 24hr
in
rain mn
in
humidity
%
barometer
mb
20260504081949 48 81 1.0 3.0 0.00 0.00 0.00 92 1015.6
20260504081425 48 81 2.0 3.0 0.00 0.00 0.00 92 1015.6
20260504080923 48 81 1.0 3.0 0.00 0.00 0.00 92 1015.6
20260504080423 48 81 0.0 3.0 0.00 0.00 0.00 92 1015.7
20260504070409 48 81 1.0 3.0 0.00 0.00 0.00 92 1015.6
20260504050315 49 81 0.0 0.0 0.00 0.00 0.00 91 1016.9
20260504045310 49 81 0.0 2.0 0.00 0.00 0.00 91 1017.0
20260504044749 49 81 0.0 0.0 0.00 0.00 0.00 91 1017.1
20260504044249 49 81 0.0 0.0 0.00 0.00 0.00 91 1017.0
20260504043228 49 81 0.0 2.0 0.00 0.00 0.00 91 1017.1
20260504042718 49 81 0.0 0.0 0.00 0.00 0.00 91 1017.1
20260504042438 49 81 0.0 0.0 0.00 0.00 0.00 91 1017.3
20260504041659 49 81 1.0 2.0 0.00 0.00 0.00 91 1017.4
20260504041418 49 81 1.0 3.0 0.00 0.00 0.00 91 1017.4
20260504040638 49 81 1.0 3.0 0.00 0.00 0.00 91 1017.3
20260504040127 49 81 1.0 3.0 0.00 0.00 0.00 91 1017.4
20260504035849 49 81 2.0 3.0 0.00 0.00 0.00 91 1017.4
20260504035104 49 81 1.0 3.0 0.00 0.00 0.00 91 1017.4
20260504034551 49 81 1.0 3.0 0.00 0.00 0.00 91 1017.6
20260504034042 49 81 1.0 3.0 0.00 0.00 0.00 91 1017.6
20260504033531 49 81 1.0 3.0 0.00 0.00 0.00 91 1017.6
20260504033022 49 81 0.0 0.0 0.00 0.00 0.00 91 1017.7
20260504032515 49 81 0.0 0.0 0.00 0.00 0.00 91 1017.9
20260504031956 49 81 0.0 3.0 0.00 0.00 0.00 91 1017.9
20260504031445 50 81 0.0 3.0 0.00 0.00 0.00 91 1017.9
20260504030948 50 81 1.0 3.0 0.00 0.00 0.00 91 1017.9
20260504030441 50 81 1.0 3.0 0.00 0.00 0.00 91 1017.9
20260504025927 50 81 1.0 3.0 0.00 0.00 0.00 91 1017.9
20260504025427 50 81 1.0 3.0 0.00 0.00 0.00 91 1018.0
20260504024924 50 81 1.0 3.0 0.00 0.00 0.00 91 1018.0
20260504024653 50 81 1.0 3.0 0.00 0.00 0.00 90 1017.9
20260504023920 50 81 1.0 3.0 0.00 0.00 0.00 91 1018.0
20260504023420 50 81 1.0 3.0 0.00 0.00 0.00 91 1018.1
20260504022920 50 81 1.0 3.0 0.00 0.00 0.00 90 1018.2
20260504022419 50 81 1.0 3.0 0.00 0.00 0.00 90 1018.3
20260504021917 51 85 1.0 3.0 0.00 0.00 0.00 90 1018.3
20260504021416 50 85 1.0 3.0 0.00 0.00 0.00 90 1018.3
20260504020915 50 85 0.0 3.0 0.00 0.00 0.00 90 1018.4
20260504020645 51 85 1.0 2.0 0.00 0.00 0.00 90 1018.5
20260504015927 51 85 2.0 3.0 0.00 0.00 0.00 90 1018.5
20260504015644 51 85 2.0 3.0 0.00 0.00 0.00 90 1018.5
20260504014913 51 85 2.0 4.0 0.00 0.00 0.00 90 1018.6
20260504014413 51 85 2.0 4.0 0.00 0.00 0.00 90 1018.5
20260504013910 51 85 1.0 3.0 0.00 0.00 0.00 89 1018.7
20260504013409 51 85 2.0 3.0 0.00 0.00 0.00 89 1018.7
20260504012911 52 85 1.0 3.0 0.00 0.00 0.00 89 1018.8
20260504012403 52 85 1.0 3.0 0.00 0.00 0.00 89 1018.9
20260504011858 52 85 1.0 3.0 0.00 0.00 0.00 89 1018.9
20260504011358 52 85 1.0 3.0 0.00 0.00 0.00 90 1018.9
20260504010858 52 85 0.0 3.0 0.00 0.00 0.00 89 1018.8
20260504010351 52 85 0.0 2.0 0.00 0.00 0.00 89 1018.9
20260504005846 53 85 0.0 2.0 0.00 0.00 0.00 89 1018.9
20260504005344 53 85 1.0 3.0 0.00 0.00 0.00 89 1019.0
20260504005337 53 86 1.0 3.0 0.00 0.00 0.00 89 1019.1
20260504004334 53 85 0.0 2.0 0.00 0.00 0.00 89 1019.0
20260504003827 53 85 0.0 2.0 0.00 0.00 0.00 89 1018.9
20260504002821 53 85 0.0 2.0 0.00 0.00 0.00 88 1018.7
20260504002313 53 85 1.0 2.0 0.00 0.00 0.00 89 1018.5
20260504001807 53 85 1.0 5.0 0.00 0.00 0.00 89 1018.3
20260504001532 53 85 2.0 5.0 0.00 0.00 0.00 89 1018.3
20260504001021 53 79 2.0 4.0 0.00 0.00 0.00 88 1018.3
20260504000246 53 77 1.0 4.0 0.00 0.00 0.00 88 1018.5
20260503235737 53 73 0.0 0.0 0.00 0.00 0.00 88 1018.4
20260503235227 53 79 0.0 0.0 0.00 0.00 0.00 88 1018.7
20260503234716 53 79 0.0 0.0 0.00 0.00 0.00 88 1018.8
20260503234207 53 79 0.0 0.0 0.00 0.00 0.00 87 1018.7
20260503233657 54 79 0.0 0.0 0.00 0.00 0.00 87 1018.8
20260503233417 54 79 0.0 0.0 0.00 0.00 0.00 86 1018.7
20260503232910 54 79 0.0 0.0 0.00 0.00 0.00 86 1018.7
20260503232128 54 79 0.0 0.0 0.00 0.00 0.00 86 1018.6
20260503231622 54 79 0.0 0.0 0.00 0.00 0.00 85 1018.7
20260503231120 55 79 0.0 0.0 0.00 0.00 0.00 85 1018.7
20260503230609 55 79 0.0 0.0 0.00 0.00 0.00 85 1018.7
20260503230057 55 77 0.0 0.0 0.00 0.00 0.00 84 1018.9
20260503225816 55 77 0.0 0.0 0.00 0.00 0.00 84 1018.9
20260503225037 56 77 0.0 0.0 0.00 0.00 0.00 83 1018.9
20260503224753 56 77 0.0 0.0 0.00 0.00 0.00 83 1018.9
20260503224010 56 77 0.0 0.0 0.00 0.00 0.00 82 1018.8
20260503223502 57 77 0.0 0.0 0.00 0.00 0.00 81 1018.8
20260503222441 58 77 0.0 0.0 0.00 0.00 0.00 80 1018.7
20260503221931 58 77 0.0 0.0 0.00 0.00 0.00 79 1018.8
20260503221420 58 77 0.0 0.0 0.00 0.00 0.00 78 1018.8
20260503220912 59 77 0.0 0.0 0.00 0.00 0.00 77 1018.8
20260503220636 59 77 0.0 0.0 0.00 0.00 0.00 76 1018.8
20260503215848 59 77 0.0 0.0 0.00 0.00 0.00 75 1018.8
20260503215838 60 77 0.0 0.0 0.00 0.00 0.00 74 1018.9
20260503215055 60 77 0.0 0.0 0.00 0.00 0.00 73 1018.8
20260503214316 61 77 0.0 0.0 0.00 0.00 0.00 72 1018.7
20260503213804 61 77 0.0 0.0 0.00 0.00 0.00 71 1018.8
20260503213253 62 77 0.0 0.0 0.00 0.00 0.00 70 1018.9
20260503212741 62 77 0.0 0.0 0.00 0.00 0.00 68 1018.8
20260503212230 63 77 0.0 0.0 0.00 0.00 0.00 67 1018.8
20260503211721 63 77 0.0 0.0 0.00 0.00 0.00 66 1018.8
20260503211211 63 77 0.0 0.0 0.00 0.00 0.00 64 1018.8
20260503210938 64 112 0.0 0.0 0.00 0.00 0.00 63 1018.9
20260503210205 64 139 0.0 0.0 0.00 0.00 0.00 63 1018.8
20260503205934 64 129 0.0 2.0 0.00 0.00 0.00 62 1018.8
20260503205201 64 131 0.0 2.0 0.00 0.00 0.00 62 1019.0
20260503204657 65 121 0.0 2.0 0.00 0.00 0.00 61 1019.0
20260503204158 65 126 0.0 4.0 0.00 0.00 0.00 61 1019.0
20260503203655 65 113 0.0 4.0 0.00 0.00 0.00 60 1019.1
20260503203153 65 135 0.0 4.0 0.00 0.00 0.00 60 1019.1
20260503202654 65 116 0.0 3.0 0.00 0.00 0.00 60 1019.0
20260503202150 65 153 1.0 4.0 0.00 0.00 0.00 59 1019.0
20260503201921 66 93 1.0 5.0 0.00 0.00 0.00 59 1019.1
20260503201149 66 135 1.0 8.0 0.00 0.00 0.00 58 1019.1
20260503200920 66 130 1.0 8.0 0.00 0.00 0.00 58 1019.2
20260503200147 66 119 1.0 6.0 0.00 0.00 0.00 57 1019.2
20260503195916 67 128 1.0 5.0 0.00 0.00 0.00 57 1019.3
20260503195151 67 100 1.0 5.0 0.00 0.00 0.00 57 1019.2
20260503194645 67 82 1.0 6.0 0.00 0.00 0.00 57 1019.3
20260503194143 67 124 2.0 6.0 0.00 0.00 0.00 57 1019.3
20260503193644 67 96 1.0 6.0 0.00 0.00 0.00 57 1019.2
20260503193141 67 146 1.0 6.0 0.00 0.00 0.00 57 1019.2
20260503192911 68 89 1.0 6.0 0.00 0.00 0.00 56 1019.2
20260503192139 68 131 1.0 4.0 0.00 0.00 0.00 56 1019.1
20260503191639 68 141 1.0 4.0 0.00 0.00 0.00 55 1019.2
20260503191140 68 118 1.0 4.0 0.00 0.00 0.00 55 1019.3
20260503190637 68 122 1.0 5.0 0.00 0.00 0.00 54 1019.3
20260503190137 69 135 1.0 5.0 0.00 0.00 0.00 54 1019.4
20260503185636 69 88 1.0 5.0 0.00 0.00 0.00 53 1019.5
20260503185135 69 95 0.0 5.0 0.00 0.00 0.00 53 1019.4
20260503184906 69 77 0.0 3.0 0.00 0.00 0.00 53 1019.5
20260503184135 70 123 1.0 6.0 0.00 0.00 0.00 53 1019.5
20260503183634 70 107 1.0 6.0 0.00 0.00 0.00 51 1019.6
20260503183133 70 56 0.0 3.0 0.00 0.00 0.00 50 1019.6
20260503182633 70 148 0.0 3.0 0.00 0.00 0.00 51 1019.7
20260503182133 70 139 0.0 2.0 0.00 0.00 0.00 51 1019.8
20260503181631 70 213 0.0 3.0 0.00 0.00 0.00 50 1019.9
20260503181131 70 202 0.0 3.0 0.00 0.00 0.00 51 1019.9
20260503180632 71 154 0.0 0.0 0.00 0.00 0.00 49 1020.0
20260503180129 70 316 0.0 2.0 0.00 0.00 0.00 47 1020.1
20260503175629 70 316 0.0 2.0 0.00 0.00 0.00 46 1020.1
20260503175127 70 282 0.0 1.0 0.00 0.00 0.00 48 1020.1
20260503174852 69 265 0.0 1.0 0.00 0.00 0.00 47 1020.3
20260503174351 69 220 0.0 0.0 0.00 0.00 0.00 49 1020.4
20260503173617 69 146 0.0 0.0 0.00 0.00 0.00 47 1020.5
20260503173341 69 106 0.0 2.0 0.00 0.00 0.00 47 1020.5
20260503172608 69 110 0.0 3.0 0.00 0.00 0.00 48 1020.6
20260503172114 69 312 0.0 3.0 0.00 0.00 0.00 47 1020.6
20260503172107 69 119 1.0 3.0 0.00 0.00 0.00 48 1020.6
20260503171102 69 4 0.0 4.0 0.00 0.00 0.00 48 1020.7
20260503170556 69 24 0.0 4.0 0.00 0.00 0.00 48 1020.7
20260503150803 64 81 1.0 4.0 0.00 0.00 0.00 52 1023.0
20260503150256 64 85 0.0 2.0 0.00 0.00 0.00 53 1023.2
20260503130835 59 59 0.0 0.0 0.00 0.02 0.00 69 1024.8
20260503130316 58 36 0.0 0.0 0.00 0.02 0.00 70 1024.8
20260503120135 52 81 0.0 0.0 0.00 0.02 0.00 83 1024.9
20260503110625 49 90 5.0 7.0 0.00 0.04 0.00 88 1024.6
20260503110340 49 71 5.0 7.0 0.00 0.04 0.00 89 1024.6